{"data":{"norad_id":60948,"epoch":"2026-09-22T12:40:50.566656Z","epoch_age_seconds":116369,"freshness":"FRESH","line1":"1 60948U 24156D   26265.52836304  .00004812  00000+0  20157-3 0  9999","line2":"2 60948  34.9965 305.7232 0003154  17.4031 342.6792 15.22925032114297","mean_motion":15.22925032,"eccentricity":0.0003154,"inclination_deg":34.9965,"raan_deg":305.7232,"arg_perigee_deg":17.4031,"mean_anomaly_deg":342.6792,"bstar":0.00020157,"rev_number":11429,"period_min":94.554884169768,"perigee_km":494.85481128938,"apogee_km":499.19166236677,"semimajor_km":6875.1602368281,"source":"CELESTRAK","updated_at":"2026-09-23T09:00:20.759184Z"}}